Location: Rounton
(54.4000°N, 1.3500°W)
Time: 23:36:37
(UTC+01:00)

Vanguard 1 - Pass Details

Date: 01 March 2024
Orbit: 653 x 3825 km, 34.2° (Epoch: 21 April)

Event Time Altitude Azimuth Distance (km) Brightness Sun altitude
Rises 18:43:51 0° 220° (SW) 4,854 14.2 -9.7°
Reaches altitude 10° 18:47:06 10° 209° (SSW) 4,257 13.7 -10.1°
Maximum altitude 18:57:10 30° 155° (SSE) 3,938 12.9 -11.6°
Enters shadow 19:10:00 14° 109° (ESE) 6,030 13.4 -13.4°
Drops below altitude 10° 19:12:22 10° 105° (ESE) 6,500 - -13.8°
Sets 19:18:59 0° 97° (E) 7,813 - -14.7°
